EW0482 Weather Reports


Display with metric or nautical units.
time (UTC)temp
F
wind
direction
speed
MPH
gust
MPH
rain 1hr
in
rain 24hr
in
rain mn
in
humidity
%
barometer
mb
20260506093056 55 252 0.0 0.0 0.00 0.00 0.00 66 1006.2
20260506091556 55 252 0.0 0.0 0.00 0.00 0.00 66 1006.3
20260506090053 56 252 0.0 0.0 0.00 0.00 0.00 65 1006.4
20260506084552 56 252 0.0 0.0 0.00 0.00 0.00 65 1006.6
20260506083051 56 252 0.0 0.0 0.00 0.00 0.00 66 1006.5
20260506081649 56 252 0.0 0.0 0.00 0.00 0.00 66 1006.6
20260506073048 56 252 0.0 0.0 0.00 0.00 0.00 71 1006.7
20260506071544 56 252 0.0 0.0 0.00 0.00 0.00 73 1006.6
20260506061538 57 252 0.0 0.0 0.00 0.00 0.00 74 1006.1
20260506044534 59 252 0.0 0.0 0.00 0.00 0.00 75 1005.4
20260506043028 59 252 0.0 0.0 0.00 0.00 0.00 75 1005.1
20260506041527 60 252 0.0 0.0 0.00 0.00 0.00 75 1005.0
20260506040041 60 252 0.0 0.0 0.00 0.00 0.00 75 1004.9
20260506034524 61 252 0.0 0.0 0.00 0.00 0.00 75 1004.7
20260506033026 61 252 0.0 0.0 0.00 0.00 0.00 75 1004.5
20260506031520 61 252 0.0 0.0 0.00 0.00 0.00 74 1004.3
20260506030020 62 252 0.0 0.0 0.00 0.00 0.00 73 1004.1
20260506024527 62 252 0.0 1.0 0.00 0.00 0.00 71 1004.0
20260506023018 62 252 0.0 0.0 0.00 0.00 0.00 70 1003.6
20260506021535 63 252 0.0 0.0 0.00 0.00 0.00 68 1003.5
20260506020018 63 252 0.0 0.0 0.00 0.00 0.00 68 1003.5
20260506014522 62 252 0.0 0.0 0.00 0.00 0.00 68 1003.4
20260506013015 62 252 0.0 4.0 0.00 0.00 0.00 68 1003.4
20260506011522 63 255 0.0 3.0 0.00 0.00 0.00 68 1003.4
20260506010015 63 243 0.0 4.0 0.00 0.00 0.00 67 1003.4
20260506004513 63 286 0.0 3.0 0.00 0.00 0.00 66 1003.4
20260506003013 64 239 0.0 4.0 0.00 0.00 0.00 65 1003.2
20260506001514 64 234 0.0 5.0 0.00 0.00 0.00 65 1003.2
20260506000012 64 243 0.0 7.0 0.00 0.00 0.00 64 1003.2
20260505234513 64 250 0.0 6.0 0.00 0.00 0.00 65 1003.2
20260505233010 64 247 1.0 9.0 0.00 0.00 0.00 64 1003.3
20260505231518 64 223 0.0 5.0 0.00 0.00 0.00 66 1003.3
20260505230010 64 256 0.0 7.0 0.00 0.00 0.00 66 1003.3
20260505224519 64 248 0.0 7.0 0.00 0.00 0.00 66 1003.4
20260505223012 64 196 0.0 4.0 0.00 0.00 0.00 65 1003.5
20260505221508 64 256 1.0 7.0 0.00 0.00 0.00 65 1003.6
20260505220008 65 253 0.0 10.0 0.00 0.00 0.00 63 1003.6
20260505214506 65 257 2.0 8.0 0.00 0.00 0.00 61 1003.7
20260505213007 66 247 0.0 6.0 0.00 0.00 0.00 62 1003.7
20260505211516 65 246 1.0 10.0 0.00 0.00 0.00 63 1003.9
20260505210006 65 259 1.0 7.0 0.00 0.00 0.00 64 1003.9
20260505204505 64 248 4.0 11.0 0.00 0.00 0.00 63 1003.9
20260505203003 64 171 0.0 10.0 0.00 0.00 0.00 63 1003.8
20260505201506 65 254 0.0 13.0 0.00 0.00 0.00 64 1003.8
20260505200003 65 256 0.0 9.0 0.00 0.00 0.00 63 1004.0
20260505194502 65 253 1.0 10.0 0.00 0.00 0.00 63 1004.0
20260505193000 65 240 0.0 8.0 0.00 0.00 0.00 65 1004.0
20260505191501 66 198 0.0 1.0 0.00 0.00 0.00 61 1004.1
20260505190100 65 250 0.0 6.0 0.00 0.00 0.00 65 1004.1
20260505184600 65 238 2.0 6.0 0.00 0.00 0.00 65 1004.2
20260505183105 65 213 0.0 6.0 0.00 0.00 0.00 66 1004.1
20260505181559 64 237 0.0 7.0 0.00 0.00 0.00 66 1004.1
20260505174555 65 239 1.0 10.0 0.00 0.00 0.00 64 1003.9
20260505173054 66 265 2.0 8.0 0.00 0.00 0.00 65 1003.6
20260505171556 65 228 0.0 6.0 0.00 0.00 0.00 65 1003.6
20260505170053 66 186 0.0 6.0 0.00 0.00 0.00 65 1003.5
20260505164550 65 257 0.0 7.0 0.00 0.00 0.00 68 1003.4
20260505163050 65 247 1.0 5.0 0.00 0.00 0.00 67 1003.3
20260505161548 64 250 0.0 4.0 0.00 0.00 0.00 67 1003.2
20260505153050 63 259 0.0 1.0 0.00 0.00 0.00 71 1003.0
20260505151546 63 259 0.0 0.0 0.00 0.00 0.00 73 1002.9
20260505124525 56 253 0.0 0.0 0.00 0.00 0.00 52 1002.5
20260505123024 56 257 0.0 2.0 0.00 0.00 0.00 53 1002.5
20260505121522 56 252 0.0 1.0 0.00 0.00 0.00 58 1002.4
20260505120026 56 250 0.0 1.0 0.00 0.00 0.00 61 1002.3
20260505114519 57 252 0.0 3.0 0.00 0.00 0.00 65 1002.4
20260505113031 57 248 0.0 1.0 0.00 0.00 0.00 68 1002.4
20260505111535 57 247 0.0 3.0 0.00 0.00 0.00 70 1002.4
20260505101523 58 252 0.0 3.0 0.00 0.00 0.00 72 1002.5
20260505100015 58 257 0.0 1.0 0.00 0.00 0.00 73 1002.6